Vorticity
2 4 13 12 11 11 11 10 12 13 11 8 8 9 11 10 10 9 8 7 6 0 3 10 20 12 8 6 7 2 10 7
2 6 11 10 9 11 12 12 9 8 7 6 5 7 7 7 7 3 4 6 4 0 -0 9 -7 -1 7 9 7 8 6 6
5 5 9 9 9 9 7 6 6 7 7 7 7 6 6 6 6 7 6 9 7 12 19 -3 17 -0 10 12 11 7 12 11
9 9 9 9 9 8 9 7 6 3 3 7 4 4 6 8 8 8 12 -1 4 39 2 -11 7 1 13 11 10 8 11 10
10 9 10 8 9 8 7 7 7 5 5 11 6 3 9 11 18 17 23 23 15 12 21 8 14 2 4 2 12 13 12 11
8 8 7 7 6 5 5 6 3 5 3 5 11 11 23 34 26 21 16 13 19 24 23 15 13 2 6 -1 14 16 10 10
8 7 7 5 7 5 6 5 8 13 16 10 20 21 15 13 19 15 18 11 9 14 22 10 10 3 5 18 47 16 12 5
7 7 7 6 7 7 9 5 8 11 8 23 13 20 3 20 29 25 16 12 12 15 22 21 9 11 3 5 9 25 16 13
7 6 7 8 8 8 3 9 11 13 17 14 17 5 19 24 29 23 15 14 13 18 19 21 32 12 12 24 6 14 0 18
7 9 7 10 10 5 5 7 3 23 6 20 9 19 14 31 19 12 11 10 16 12 6 7 20 9 4 3 5 0 32 2
10 12 12 11 7 11 8 3 3 23 15 7 12 15 24 18 21 21 10 14 6 13 5 16 7 6 3 19 -4 31 1 24
9 9 8 8 10 3 3 2 15 18 13 12 16 18 20 12 28 13 10 14 7 3 11 29 19 2 -1 22 33 69 24 16
9 9 9 12 3 1 3 6 16 14 4 20 11 13 7 16 13 6 9 14 1 -8 10 13 9 17 24 -6 26 12 11 1
8 11 9 8 6 3 -0 4 7 9 10 23 6 18 7 27 14 15 9 7 18 3 14 5 12 3 7 33 -9 31 -18 9
8 8 9 8 6 5 -1 6 10 15 1 5 19 11 -1 23 8 9 13 22 11 7 6 12 5 11 10 -20 30 -13 15 11
6 4 4 5 5 4 7 9 15 15 0 14 37 26 11 22 12 77 -13 9 39 3 4 8 8 9 2 32 5 9 6 5
2 1 3 5 7 7 12 19 10 16 11 20 32 -9 20 12 17 66 39 -0 -17 41 5 10 7 8 19 -5 34 3 4 2
12 13 12 16 20 23 25 13 14 12 12 3 8 23 1 -2 44 7 2 25 12 -21 31 14 15 8 -4 5 15 9 3 3
40 47 42 32 19 20 13 12 19 15 27 16 11 5 -1 23 28 16 19 19 12 27 22 -22 14 3 -2 -5 3 15 5 4
Height
5711 5710 5711 5712 5713 5713 5713 5714 5714 5715 5716 5718 5720 5721 5722 5723 5723 5725 5727 5730 5730 5732 5735 5739 5740 5740 5744 5744 5746 5747 5749 5751
5698 5699 5700 5700 5701 5702 5703 5704 5704 5706 5706 5706 5707 5709 5710 5711 5711 5712 5713 5715 5717 5718 5722 5727 5728 5731 5734 5734 5737 5738 5740 5743
5688 5688 5689 5690 5691 5691 5692 5693 5694 5694 5696 5698 5699 5698 5697 5696 5697 5699 5698 5700 5703 5706 5709 5713 5717 5720 5723 5725 5728 5729 5728 5732
5676 5677 5678 5679 5680 5681 5682 5683 5684 5684 5684 5685 5685 5684 5684 5682 5681 5682 5680 5684 5687 5692 5695 5698 5705 5708 5712 5714 5717 5719 5720 5722
5666 5667 5668 5668 5670 5670 5671 5672 5671 5672 5672 5671 5669 5667 5666 5663 5661 5661 5664 5666 5670 5673 5679 5690 5693 5696 5699 5702 5705 5707 5710 5715
5655 5656 5657 5658 5660 5661 5661 5661 5660 5659 5658 5655 5652 5650 5646 5643 5641 5641 5646 5650 5654 5659 5667 5672 5679 5682 5687 5689 5690 5695 5700 5705
5644 5645 5646 5647 5649 5650 5651 5651 5648 5647 5644 5640 5636 5632 5629 5628 5628 5630 5635 5639 5643 5648 5651 5658 5664 5670 5673 5679 5672 5682 5687 5694
5633 5635 5636 5637 5639 5640 5640 5639 5637 5634 5631 5625 5621 5619 5616 5614 5614 5617 5622 5628 5634 5638 5640 5646 5652 5657 5665 5666 5668 5672 5677 5682
5624 5625 5626 5627 5629 5630 5630 5629 5626 5621 5616 5612 5609 5606 5604 5603 5603 5606 5610 5619 5623 5626 5629 5635 5639 5644 5649 5653 5658 5664 5668 5671
5616 5616 5617 5619 5620 5621 5620 5618 5615 5609 5605 5601 5599 5596 5594 5593 5594 5597 5602 5608 5614 5617 5621 5625 5629 5634 5638 5645 5651 5656 5658 5660
5606 5607 5608 5609 5610 5611 5610 5607 5603 5598 5595 5592 5590 5588 5586 5585 5586 5589 5594 5600 5604 5609 5612 5617 5620 5625 5631 5636 5639 5644 5650 5654
5597 5598 5599 5600 5600 5600 5600 5597 5593 5589 5587 5584 5582 5581 5580 5579 5580 5583 5588 5593 5596 5601 5606 5608 5611 5619 5623 5626 5628 5627 5640 5647
5588 5589 5589 5590 5590 5590 5589 5587 5583 5581 5578 5577 5574 5574 5574 5575 5576 5579 5582 5586 5588 5594 5599 5602 5607 5611 5614 5615 5621 5627 5633 5640
5577 5579 5580 5581 5580 5581 5580 5578 5575 5573 5570 5569 5568 5569 5567 5568 5570 5572 5574 5578 5582 5585 5591 5596 5601 5606 5607 5612 5616 5621 5627 5632
5566 5568 5569 5571 5571 5571 5571 5569 5566 5564 5563 5562 5561 5561 5561 5560 5562 5565 5568 5571 5575 5578 5584 5590 5594 5599 5603 5607 5610 5616 5621 5627
5555 5556 5558 5560 5561 5561 5561 5560 5558 5555 5555 5554 5553 5552 5553 5553 5554 5552 5559 5563 5567 5573 5577 5582 5589 5595 5600 5603 5608 5612 5616 5619
5543 5544 5546 5548 5550 5552 5551 5551 5549 5549 5548 5546 5545 5546 5547 5549 5549 5549 5554 5559 5565 5568 5572 5576 5582 5588 5592 5595 5600 5606 5609 5611
5530 5532 5535 5537 5539 5541 5542 5542 5542 5543 5542 5541 5540 5540 5542 5543 5543 5547 5549 5553 5557 5561 5564 5569 5575 5581 5585 5588 5594 5598 5600 5604
5519 5521 5524 5527 5529 5532 5534 5536 5536 5537 5536 5535 5535 5536 5537 5537 5537 5540 5544 5548 5550 5553 5557 5562 5567 5572 5576 5581 5585 5590 5593 5596